• în Republica Moldova
  • Lista ţărilor
  • Pe 7 zile
  • Temperatura apei
  • Hartă satelitară
  • Meteo pe hartă
  • Widget-uri
  • user-avatar
    Intrare

    Meteo pe oră la Newcastle

    Astăzi, 21 Octombrie, Sâmbătă

    Timp Temperatura Precipitaţii Vânt Presiune Umiditate
    00:00 +14°C° 0,5 mm 6 m/s 765 mmHg 92%
    01:00 +14°C° 0,5 mm 6 m/s 765 mmHg 91%
    02:00 +14°C° 0,1 mm 6 m/s 765 mmHg 90%
    03:00 +14°C° 0,1 mm 6 m/s 765 mmHg 89%
    04:00 +13°C° 0,1 mm 6 m/s 765 mmHg 88%
    05:00 +14°C° 0 mm 6 m/s 765 mmHg 85%
    06:00 +14°C° 0 mm 6 m/s 765 mmHg 82%
    07:00 +15°C° 0 mm 6 m/s 765 mmHg 79%
    08:00 +15°C° 0,1 mm 5 m/s 765 mmHg 75%
    09:00 +16°C° 0,1 mm 5 m/s 765 mmHg 70%
    10:00 +17°C° 0,1 mm 5 m/s 765 mmHg 66%
    11:00 +17°C° 0,1 mm 5 m/s 764 mmHg 64%
    12:00 +19°C° 0,1 mm 5 m/s 763 mmHg 63%
    13:00 +19°C° 0,1 mm 5 m/s 763 mmHg 61%
    14:00 +19°C° 0 mm 5 m/s 763 mmHg 60%
    15:00 +19°C° 0 mm 4 m/s 762 mmHg 58%
    16:00 +19°C° 0 mm 4 m/s 762 mmHg 57%
    17:00 +18°C° 0 mm 4 m/s 762 mmHg 66%
    18:00 +16°C° 0 mm 3 m/s 762 mmHg 74%
    19:00 +14°C° 0 mm 2 m/s 762 mmHg 82%
    20:00 +13°C° 0 mm 2 m/s 762 mmHg 85%
    21:00 +13°C° 0 mm 2 m/s 762 mmHg 87%
    22:00 +12°C° 0 mm 1 m/s 763 mmHg 89%
    23:00 +12°C° 0 mm 2 m/s 762 mmHg 91%

    Mâine, 22 Octombrie, Duminică

    Timp Temperatura Precipitaţii Vânt Presiune Umiditate
    00:00 +12°C° 0 mm 2 m/s 762 mmHg 93%
    01:00 +10°C° 0 mm 2 m/s 761 mmHg 95%
    02:00 +10°C° 0 mm 2 m/s 761 mmHg 95%
    03:00 +10°C° 0 mm 2 m/s 760 mmHg 96%
    04:00 +10°C° 0 mm 2 m/s 760 mmHg 97%
    05:00 +12°C° 0 mm 2 m/s 760 mmHg 90%
    06:00 +14°C° 0 mm 2 m/s 760 mmHg 84%
    07:00 +15°C° 0 mm 2 m/s 760 mmHg 78%
    08:00 +18°C° 0 mm 2 m/s 760 mmHg 68%
    09:00 +21°C° 0 mm 2 m/s 759 mmHg 57%
    10:00 +25°C° 0 mm 1 m/s 759 mmHg 47%
    11:00 +25°C° 0 mm 2 m/s 759 mmHg 46%
    12:00 +25°C° 0 mm 2 m/s 758 mmHg 44%
    13:00 +26°C° 0 mm 2 m/s 757 mmHg 42%
    14:00 +25°C° 0,2 mm 3 m/s 757 mmHg 48%
    15:00 +24°C° 0,2 mm 3 m/s 757 mmHg 53%
    16:00 +22°C° 0,2 mm 4 m/s 757 mmHg 58%
    17:00 +20°C° 0,1 mm 4 m/s 757 mmHg 66%
    18:00 +19°C° 0,1 mm 4 m/s 758 mmHg 74%
    19:00 +17°C° 0,1 mm 4 m/s 758 mmHg 82%
    20:00 +17°C° 0,7 mm 4 m/s 759 mmHg 85%
    21:00 +15°C° 0,7 mm 4 m/s 759 mmHg 89%
    22:00 +15°C° 0,7 mm 4 m/s 760 mmHg 92%
    23:00 +14°C° 0,5 mm 4 m/s 760 mmHg 93%

    Poimâine, 23 Octombrie, Luni

    Timp Temperatura Precipitaţii Vânt Presiune Umiditate
    00:00 +14°C° 0,5 mm 3 m/s 760 mmHg 94%
    01:00 +13°C° 0,5 mm 3 m/s 759 mmHg 95%
    02:00 +13°C° 0,1 mm 4 m/s 759 mmHg 96%
    03:00 +12°C° 0,1 mm 4 m/s 759 mmHg 96%
    04:00 +12°C° 0,1 mm 4 m/s 759 mmHg 96%
    05:00 +13°C° 0 mm 4 m/s 760 mmHg 94%
    06:00 +14°C° 0 mm 4 m/s 760 mmHg 91%
    07:00 +15°C° 0 mm 4 m/s 761 mmHg 89%
    08:00 +18°C° 0,1 mm 4 m/s 761 mmHg 78%
    09:00 +20°C° 0,1 mm 4 m/s 761 mmHg 67%
    10:00 +22°C° 0,1 mm 4 m/s 761 mmHg 56%
    11:00 +23°C° 0 mm 4 m/s 761 mmHg 52%
    12:00 +23°C° 0 mm 4 m/s 761 mmHg 49%
    13:00 +25°C° 0 mm 4 m/s 761 mmHg 46%
    14:00 +23°C° 0 mm 4 m/s 761 mmHg 48%
    15:00 +24°C° 0 mm 3 m/s 761 mmHg 51%
    16:00 +22°C° 0 mm 3 m/s 760 mmHg 53%
    17:00 +20°C° 0 mm 3 m/s 761 mmHg 63%
    18:00 +18°C° 0 mm 2 m/s 762 mmHg 72%
    19:00 +16°C° 0 mm 2 m/s 762 mmHg 82%
    20:00 +15°C° 0 mm 2 m/s 763 mmHg 85%
    21:00 +15°C° 0 mm 2 m/s 763 mmHg 88%
    22:00 +14°C° 0 mm 2 m/s 763 mmHg 92%
    23:00 +14°C° 0 mm 2 m/s 763 mmHg 93%

    24 Octombrie, Marţi

    Timp Temperatura Precipitaţii Vânt Presiune Umiditate
    00:00 +14°C° 0 mm 2 m/s 763 mmHg 94%
    01:00 +13°C° 0 mm 2 m/s 763 mmHg 96%
    02:00 +13°C° 0 mm 2 m/s 763 mmHg 96%
    03:00 +13°C° 0 mm 2 m/s 762 mmHg 96%
    04:00 +13°C° 0 mm 2 m/s 762 mmHg 96%
    05:00 +14°C° 0 mm 2 m/s 762 mmHg 89%
    06:00 +16°C° 0 mm 2 m/s 763 mmHg 81%
    07:00 +18°C° 0 mm 2 m/s 763 mmHg 73%
    08:00 +21°C° 0 mm 2 m/s 763 mmHg 62%
    09:00 +25°C° 0 mm 2 m/s 763 mmHg 51%
    10:00 +28°C° 0 mm 2 m/s 763 mmHg 40%
    11:00 +29°C° 0 mm 3 m/s 762 mmHg 37%
    12:00 +30°C° 0 mm 4 m/s 761 mmHg 34%
    13:00 +32°C° 0 mm 4 m/s 760 mmHg 31%
    14:00 +30°C° 0 mm 5 m/s 760 mmHg 35%
    15:00 +29°C° 0 mm 5 m/s 760 mmHg 40%
    16:00 +28°C° 0 mm 6 m/s 759 mmHg 44%
    17:00 +27°C° 0 mm 6 m/s 760 mmHg 49%
    18:00 +24°C° 0 mm 6 m/s 760 mmHg 55%
    19:00 +22°C° 0 mm 6 m/s 760 mmHg 60%
    20:00 +21°C° 0 mm 5 m/s 761 mmHg 63%
    21:00 +20°C° 0 mm 5 m/s 761 mmHg 67%
    22:00 +19°C° 0 mm 4 m/s 761 mmHg 70%
    23:00 +19°C° 0 mm 4 m/s 761 mmHg 67%

    25 Octombrie, Miercuri

    Timp Temperatura Precipitaţii Vânt Presiune Umiditate
    00:00 +19°C° 0 mm 3 m/s 760 mmHg 64%
    01:00 +18°C° 0 mm 3 m/s 760 mmHg 60%
    02:00 +18°C° 0 mm 3 m/s 760 mmHg 59%
    03:00 +18°C° 0 mm 3 m/s 760 mmHg 58%
    04:00 +18°C° 0 mm 2 m/s 760 mmHg 57%
    05:00 +19°C° 0 mm 2 m/s 760 mmHg 55%
    06:00 +20°C° 0 mm 2 m/s 760 mmHg 53%
    07:00 +23°C° 0 mm 2 m/s 761 mmHg 51%
    08:00 +25°C° 0 mm 2 m/s 760 mmHg 44%
    09:00 +28°C° 0 mm 2 m/s 760 mmHg 36%
    10:00 +31°C° 0 mm 2 m/s 760 mmHg 28%
    11:00 +32°C° 0 mm 2 m/s 759 mmHg 26%
    12:00 +34°C° 0 mm 3 m/s 758 mmHg 24%
    13:00 +35°C° 0 mm 4 m/s 757 mmHg 22%
    14:00 +35°C° 0 mm 4 m/s 757 mmHg 25%
    15:00 +34°C° 0 mm 4 m/s 757 mmHg 27%
    16:00 +34°C° 0 mm 4 m/s 756 mmHg 30%
    17:00 +29°C° 0,3 mm 4 m/s 757 mmHg 47%
    18:00 +25°C° 0,3 mm 4 m/s 757 mmHg 64%
    19:00 +20°C° 0,3 mm 3 m/s 757 mmHg 81%
    20:00 +20°C° 0 mm 4 m/s 757 mmHg 82%
    21:00 +19°C° 0 mm 4 m/s 757 mmHg 83%
    22:00 +19°C° 0 mm 4 m/s 757 mmHg 84%
    23:00 +19°C° 0 mm 4 m/s 756 mmHg 82%

    26 Octombrie, Joi

    Timp Temperatura Precipitaţii Vânt Presiune Umiditate
    00:00 +19°C° 0 mm 4 m/s 755 mmHg 80%
    01:00 +19°C° 0 mm 4 m/s 754 mmHg 78%
    02:00 +19°C° 0 mm 4 m/s 753 mmHg 71%
    03:00 +20°C° 0 mm 3 m/s 753 mmHg 65%
    04:00 +20°C° 0 mm 3 m/s 753 mmHg 58%
    05:00 +22°C° 0 mm 4 m/s 753 mmHg 53%
    06:00 +23°C° 0 mm 4 m/s 753 mmHg 47%
    07:00 +26°C° 0 mm 4 m/s 753 mmHg 42%
    08:00 +28°C° 0 mm 5 m/s 753 mmHg 36%
    09:00 +30°C° 0 mm 5 m/s 753 mmHg 30%
    10:00 +34°C° 0 mm 5 m/s 753 mmHg 24%
    11:00 +35°C° 0 mm 5 m/s 752 mmHg 22%
    12:00 +35°C° 0 mm 5 m/s 751 mmHg 21%
    13:00 +36°C° 0 mm 5 m/s 751 mmHg 19%
    14:00 +35°C° 0 mm 5 m/s 750 mmHg 21%
    15:00 +34°C° 0 mm 5 m/s 750 mmHg 23%
    16:00 +33°C° 0 mm 5 m/s 750 mmHg 25%
    17:00 +30°C° 0 mm 5 m/s 751 mmHg 27%
    18:00 +28°C° 0 mm 5 m/s 752 mmHg 29%
    19:00 +26°C° 0 mm 5 m/s 752 mmHg 31%
    20:00 +23°C° 0,1 mm 5 m/s 753 mmHg 42%
    21:00 +21°C° 0,1 mm 5 m/s 754 mmHg 54%
    22:00 +19°C° 0,1 mm 4 m/s 755 mmHg 65%
    23:00 +18°C° 0 mm 4 m/s 755 mmHg 68%
    Arată mai mult